User: anonymous   Login
Location: Unspecified
(0.0000°N, 0.0000°E)
Time: 23:19:24
(UTC+00:00)
Language:

SCD-1 - Orbit

View from above orbital plane
View from above orbital plane
View from above satellite
View from above satellite

Ground track
Ground track

The orbit data is extracted from the following two-line orbital elements,

1 22490U 93009B   17141.38731944 +.00000216 +00000-0 +94553-5 0  9991
2 22490 024.9691 108.8516 0043213 052.2778 085.2074 14.44486093281441
Epoch (UTC): 21 May 2017 09:17:44
Eccentricity: 0.0043213
inclination: 24.9691°
perigee height: 713 km
apogee height: 774 km
right ascension of ascending node: 108.8516°
argument of perigee: 52.2778°
revolutions per day: 14.44486093
mean anomaly at epoch: 85.2074°
orbit number at epoch: 28144

The dashed part of the orbit path shows where the satellite is in the earth's shadow,  

DLR